Regional Weather Roundup
Issued by NWS Charleston, SC

Home | Current Version | Previous Version | Text Only | Print | Product List | Glossary On
Versions: 1 2 3 4 5 6 7 8 9 10 11 12 13 14 15 16 17 18 19 20 21 22 23 24 25 26 27 28 29 30 31 32 33 34 35 36 37 38 39 40 41 42 43 44 45 46 47 48 49 50
000
ASUS42 KCHS 281228
RWRCHS

REGIONAL WEATHER ROUNDUP
NATIONAL WEATHER SERVICE CHARLESTON SC
800 AM EDT WED SEP 28 2016

NOTE: "FAIR" INDICATES FEW OR NO CLOUDS BELOW 12,000 FEET WITH NO
SIGNIFICANT WEATHER AND/OR OBSTRUCTIONS TO VISIBILITY.

NOT ALL STATIONS ARE QUALITY CONTROLLED. USE DATA WITH CAUTION...
ESPECIALLY DEWPOINT OBSERVATIONS.

SCZ027-030-031-034>040-042>050-281300-
...SOUTHEAST SOUTH CAROLINA...

CITY           SKY/WX    TMP DP  RH WIND       PRES   REMARKS
N CHARLESTON   PTCLDY    73  70  90 S5        29.94R
6HR MIN TEMP:  71; 6HR MAX TEMP:  74;

WATERFRONT PRK   N/A     75  73  93 CALM      29.92S
MOUNT PLEASANT FAIR      72  72 100 CALM      29.95R FOG
JOHNS ISLAND   FAIR      75  72  88 CALM      29.95R
PINOPOLIS        N/A     73  72  94 SW6       29.85S
MONCKS CORNER  FAIR      70  70 100 S3        29.94S
SUMMERVILLE    FAIR      70  70 100 CALM      29.95S
BEAUFORT MCAS  PTCLDY    74  72  93 S5        29.94S
6HR MIN TEMP:  70; 6HR MAX TEMP:  74;

BEAUFORT ARPT  FAIR      75  73  94 SW5       29.95R FOG
HILTON HEAD IS CLEAR     75  72  88 S6        29.97R
WALTERBORO     MOSUNNY   73  73 100 SW5       29.95S
ALLENDALE      FAIR      72  72 100 CALM      29.94R

...SOUTHERN MIDLANDS AND PEE DEE...

CITY           SKY/WX    TMP DP  RH WIND       PRES   REMARKS
GEORGETOWN     FAIR      70  68  94 CALM      29.95S
KINGSTREE      FAIR      72  68  88 CALM      29.94R
ORANGEBURG     PTCLDY    70  70 100 S5        29.93S
6HR MIN TEMP:  69; 6HR MAX TEMP:  72;

BARNWELL       NOT AVBL
AIKEN          FAIR      68  64  88 CALM      29.96S
MANNING        FAIR      72  70  94 S7        29.93S
COLUMBIA       MOCLDY    72  66  81 CALM      29.90S
6HR MIN TEMP:  70; 6HR MAX TEMP:  75;

SUMTER         PTCLDY    71  69  95 CALM      29.90R
6HR MIN TEMP:  69; 6HR MAX TEMP:  72;

FLORENCE       PTCLDY    70  68  93 CALM      29.93R
6HR MIN TEMP:  69; 6HR MAX TEMP:  74;

MYRTLE BEACH   PTCLDY    73  63  68 SW6       29.96R
N MYRTLE BEACH SUNNY     72  71  97 CALM      29.94R
6HR MIN TEMP:  69; 6HR MAX TEMP:  72;


$$

GAZ063-065-086>088-099>101-113>116-118-119-134>141-150-281300-
...SOUTHEAST GEORGIA...

CITY           SKY/WX    TMP DP  RH WIND       PRES   REMARKS
SAVANNAH ARPT  MOCLDY    73  70  90 CALM      29.95R
6HR MIN TEMP:  71; 6HR MAX TEMP:  73;

HUNTER AAF     CLEAR     71  71 100 CALM      29.93S
6HR MIN TEMP:  71; 6HR MAX TEMP:  74;

FORT STEWART   CLEAR     70  68  94 CALM      29.93R
6HR MIN TEMP:  68; 6HR MAX TEMP:  73;

STATESBORO     PTCLDY    73  71  95 CALM      29.95R
SYLVANIA       NOT AVBL
CLAXTON        FAIR      69  69 100 CALM      29.95S

...CSRA...CENTRAL AND FAR SOUTHEAST GEORGIA...

CITY           SKY/WX    TMP DP  RH WIND       PRES   REMARKS
THOMSON        CLEAR     69  69 100 CALM      29.97R
AUGUSTA-BUSH   MOCLDY    69  68  96 CALM      29.92R FOG
6HR MIN TEMP:  67; 6HR MAX TEMP:  73;

AUGUSTA-DANIEL PTCLDY    71  66  84 S6        29.93R
SWAINSBORO     FAIR      70  68  94 S3        29.95S
VIDALIA          N/A     72  72 100 CALM      29.96R
EASTMAN        FAIR      71  71 100 CALM      29.97S
HAZLEHURST     FAIR      71  71 100 CALM      29.95R
ALMA           PTCLDY    68  68 100 CALM      29.95R FOG
6HR MIN TEMP:  67; 6HR MAX TEMP:  71;

WAYCROSS       PTCLDY    72  72 100 CALM      29.97R
JESUP          FAIR      70  70 100 CALM      29.96R FOG
BAXLEY         FAIR      70  70 100 CALM      29.96R
BRUNSWICK      PTCLDY    73  73 100 CALM      29.96R
SAINT SIMONS   CLEAR     74  72  93 W5        29.95R
6HR MIN TEMP:  73; 6HR MAX TEMP:  77;


$$

SCZ027-028-034-036>038-045-046-048>050-GAZ119-141-281300-
...LAKE AND SUPPLEMENTAL COASTAL OBSERVATIONS...

STATION/POSITION TIME  TEMP    WIND        PRES    WAVE   SWELL
                       AIR SEA DIR/SP/G            HT/PER HT/PER/DIR
                 (UTC) (F)     (DEG/KT/KT) (MB)    (FT/S) (FT/S/D)
WINYAH BAY       1145   72     310/  1     1013.0R
LAKE MURRAY      1220   74     200/  6/  9 1012.5R
ACE BASIN NERRS  1145   72        CALM     1014.0S
FORT PULASKI     1200   77 81  230/  4/  5 1014.7
SAPELO ISLAND    1200   75     220/  4     1014.0

$$

ANZ835-935-AMZ111-154-330-350-352-354-370-450-454-472-281300-
...C-MAN AND BUOY OBSERVATIONS...

STATION/POSITION TIME  TEMP    WIND        PRES    WAVE   SWELL
                       AIR SEA DIR/SP/G            HT/PER HT/PER/DIR
                 (UTC) (F)     (DEG/KT/KT) (MB)    (FT/S) (FT/S/D)
BUOY 41004       1150   80 82  220/  4/  6 1013.4R   3/11   3/120/11
BUOY 41008       1150   81 82  200/  8/ 12 1013.7R   2/12   2/ 60/12
FOLLY BEACH CMAN 1200   79     220/  7/  9 1014.0S
CAPERS NEARSHORE 1208   80 81  230/  8/ 10 1013.7R
FRIPP NEARSHORE  1108   79 81  220/ 10/ 12 1013.8R


STATION/POSITION TIME  TEMP    WIND        PRES    WAVE   SWELL
                       AIR SEA DIR/SP/G            HT/PER HT/PER/DIR
                 (UTC) (F)     (DEG/KT/KT) (MB)    (FT/S) (FT/S/D)
5E ST. MARYS GA  1201      81                N/A     2/12   2/100/12
FRYING PAN BUOY  1200   80 82  310/  2/  4 1013.8
BUOY 41025       1150   77 84  340/ 12/ 14 1013.3R   4/12   3/ 80/12
CAPE LOOKOUT NC  1200   75      50/  1/  2 1013.6F
BUOY 41002       1150   81 83  190/  8/  8 1014.0R   4/ 6   3/100/ 6
BUOY 41010       NOT AVBL
ST AUGUSTINE FL  1200   76 83  250/  4/  5 1015.5R


$$



USA.gov is the U.S. government's official web portal to all federal, state and local government web resources and services.